URO8972 ZSPD-RKSI

Flight info

Callsign URO8972
Flight time 1h 2m
Altitude 37000
Route LAM84D LAMEN/N0486F370 A593 SADLI Y590 ELGEP Y722 OLMEN OLMEN2H
Aircraft A346/H-SDE2E3FGHIJ3J4J5M1RWXY/LB1D1

Departure

Time 2026-05-05 13:44
Airport Shanghai Pudong International Airport (ZSPD)

Arrival

Time 2026-05-05 14:46
Airport Incheon International Airport (RKSI)
Time Latitude Longitude Altitude Speed Heading
2026-05-05 13:19 31.15922 121.80717 27 ft 0 kts 72°
2026-05-05 13:21 31.16048 121.80675 27 ft 0 kts 72°
2026-05-05 13:21 31.16046 121.80679 27 ft 1 kts 72°
2026-05-05 13:22 31.16046 121.80677 27 ft 0 kts 72°
2026-05-05 13:31 31.16046 121.80676 27 ft 1 kts 72°
2026-05-05 13:31 31.16038 121.80648 27 ft 0 kts 72°
2026-05-05 13:31 31.16037 121.80644 27 ft 3 kts 74°
2026-05-05 13:32 31.16043 121.80582 27 ft 0 kts 148°
2026-05-05 13:34 31.16042 121.80583 27 ft 1 kts 152°
2026-05-05 13:34 31.15958 121.80612 27 ft 29 kts 162°
2026-05-05 13:34 31.15827 121.80662 27 ft 8 kts 162°
2026-05-05 13:34 31.15802 121.80672 27 ft 0 kts 162°
2026-05-05 13:35 31.15769 121.80684 27 ft 8 kts 162°
2026-05-05 13:35 31.15707 121.80710 27 ft 10 kts 159°
2026-05-05 13:35 31.15681 121.80785 27 ft 13 kts 77°
2026-05-05 13:35 31.15694 121.80836 27 ft 5 kts 72°
2026-05-05 13:36 31.15698 121.80850 27 ft 1 kts 72°
2026-05-05 13:36 31.15699 121.80853 27 ft 0 kts 72°
2026-05-05 13:37 31.15700 121.80856 27 ft 4 kts 72°
2026-05-05 13:38 31.15753 121.81042 27 ft 19 kts 72°
2026-05-05 13:38 31.15755 121.81052 27 ft 1 kts 72°
2026-05-05 13:38 31.15754 121.81045 27 ft 0 kts 72°
2026-05-05 13:39 31.15757 121.81059 27 ft 0 kts 73°
2026-05-05 13:40 31.15758 121.81061 27 ft 0 kts 73°
2026-05-05 13:41 31.15758 121.81062 27 ft 0 kts 73°
2026-05-05 13:41 31.15780 121.81144 27 ft 25 kts 77°
2026-05-05 13:42 31.15766 121.81230 27 ft 0 kts 162°
2026-05-05 13:43 31.15431 121.81351 27 ft 99 kts 161°
2026-05-05 13:44 31.14712 121.81621 676 ft 103 kts 164°
2026-05-05 13:44 31.14062 121.81873 1303 ft 113 kts 165°
2026-05-05 13:44 31.13267 121.82162 1924 ft 128 kts 165°
2026-05-05 13:44 31.12355 121.82494 2591 ft 152 kts 165°
2026-05-05 13:45 31.11263 121.83046 2926 ft 196 kts 149°
2026-05-05 13:45 31.09998 121.84056 3486 ft 241 kts 145°
2026-05-05 13:45 31.08891 121.85590 4702 ft 262 kts 114°
2026-05-05 13:45 31.08673 121.87718 5970 ft 279 kts 82°
2026-05-05 13:46 31.09146 121.89895 7382 ft 287 kts 73°
2026-05-05 13:46 31.09730 121.92101 8800 ft 293 kts 72°
2026-05-05 13:46 31.10334 121.94366 10182 ft 298 kts 72°
2026-05-05 13:46 31.10942 121.96671 11339 ft 310 kts 72°
2026-05-05 13:47 31.11582 121.99124 12283 ft 328 kts 72°
2026-05-05 13:47 31.12262 122.01748 13188 ft 347 kts 72°
2026-05-05 13:47 31.12978 122.04520 14061 ft 367 kts 72°
2026-05-05 13:47 31.13720 122.07407 14891 ft 386 kts 72°
2026-05-05 13:48 31.14519 122.10526 15711 ft 406 kts 72°
2026-05-05 13:48 31.15335 122.13716 16499 ft 425 kts 72°
2026-05-05 13:48 31.16195 122.17092 17504 ft 438 kts 72°
2026-05-05 13:48 31.17068 122.20526 18629 ft 447 kts 72°
2026-05-05 13:49 31.17957 122.24030 19737 ft 456 kts 72°
2026-05-05 13:49 31.18860 122.27595 20801 ft 464 kts 72°
2026-05-05 13:49 31.19778 122.31225 21824 ft 473 kts 72°
2026-05-05 13:49 31.20723 122.34963 22816 ft 482 kts 72°
2026-05-05 13:50 31.21664 122.38690 23752 ft 490 kts 72°
2026-05-05 13:50 31.22631 122.42531 24667 ft 499 kts 72°
2026-05-05 13:50 31.23625 122.46481 25560 ft 507 kts 72°
2026-05-05 13:50 31.24623 122.50455 26397 ft 515 kts 72°
2026-05-05 13:51 31.25653 122.54563 27192 ft 522 kts 72°
2026-05-05 13:51 31.26703 122.58754 27943 ft 530 kts 72°
2026-05-05 13:51 31.27747 122.62932 28643 ft 537 kts 73°
2026-05-05 13:51 31.28795 122.67135 29316 ft 543 kts 73°
2026-05-05 13:52 31.29847 122.71376 30031 ft 546 kts 73°
2026-05-05 13:52 31.30898 122.75627 30926 ft 545 kts 73°
2026-05-05 13:52 31.31946 122.79862 31789 ft 543 kts 74°
2026-05-05 13:52 31.32997 122.84119 32555 ft 542 kts 74°
2026-05-05 13:53 31.34032 122.88308 33235 ft 542 kts 74°
2026-05-05 13:53 31.35081 122.92565 33890 ft 543 kts 74°
2026-05-05 13:53 31.36125 122.96806 34519 ft 543 kts 74°
2026-05-05 13:53 31.37166 123.01041 35137 ft 542 kts 73°
2026-05-05 13:54 31.38486 123.05177 35717 ft 541 kts 63°
2026-05-05 13:54 31.40395 123.08910 36270 ft 540 kts 55°
2026-05-05 13:54 31.42537 123.12539 36570 ft 545 kts 53°
2026-05-05 13:54 31.44747 123.16182 36746 ft 552 kts 53°
2026-05-05 13:55 31.46991 123.19889 36923 ft 559 kts 53°
2026-05-05 13:55 31.49232 123.23631 37014 ft 567 kts 54°
2026-05-05 13:55 31.53724 123.31221 37029 ft 564 kts 54°
2026-05-05 13:56 31.62568 123.46371 37090 ft 564 kts 54°
2026-05-05 13:56 31.66959 123.53989 37082 ft 564 kts 54°
2026-05-05 13:57 31.71371 123.61643 37088 ft 563 kts 54°
2026-05-05 13:57 31.75763 123.69272 37090 ft 563 kts 55°
2026-05-05 13:58 31.80129 123.76887 37092 ft 564 kts 55°
2026-05-05 13:58 31.84491 123.84489 37092 ft 563 kts 55°
2026-05-05 13:59 31.91057 123.95943 37092 ft 563 kts 55°
2026-05-05 14:00 31.96910 124.06178 37092 ft 564 kts 55°
2026-05-05 14:00 32.02007 124.15112 37092 ft 564 kts 55°
2026-05-05 14:01 32.06365 124.22768 37092 ft 564 kts 55°
2026-05-05 14:01 32.10731 124.30452 37091 ft 563 kts 55°
2026-05-05 14:02 32.15113 124.38122 37092 ft 563 kts 54°
2026-05-05 14:02 32.19476 124.45792 37093 ft 564 kts 55°
2026-05-05 14:03 32.23818 124.53469 37093 ft 564 kts 55°
2026-05-05 14:03 32.28162 124.61181 37093 ft 564 kts 55°
2026-05-05 14:04 32.32385 124.68701 37092 ft 564 kts 56°
2026-05-05 14:04 32.36704 124.76434 37092 ft 564 kts 56°
2026-05-05 14:05 32.41008 124.84140 37091 ft 566 kts 56°
2026-05-05 14:05 32.45360 124.91933 37098 ft 575 kts 56°
2026-05-05 14:06 32.49823 124.99933 37111 ft 584 kts 56°
2026-05-05 14:06 32.54337 125.08043 37128 ft 592 kts 56°
2026-05-05 14:07 32.58890 125.16246 37139 ft 592 kts 56°
2026-05-05 14:07 32.63405 125.24392 37144 ft 592 kts 56°
2026-05-05 14:08 32.67932 125.32581 37146 ft 592 kts 56°
2026-05-05 14:08 32.72447 125.40764 37147 ft 592 kts 56°
2026-05-05 14:09 32.77158 125.48723 37145 ft 589 kts 44°
2026-05-05 14:09 32.80232 125.51887 37145 ft 583 kts 30°
2026-05-05 14:09 32.83748 125.54223 37145 ft 574 kts 18°
2026-05-05 14:10 32.91264 125.57021 37147 ft 566 kts
2026-05-05 14:10 32.98870 125.59510 37147 ft 566 kts
2026-05-05 14:11 33.06364 125.62064 37147 ft 559 kts 11°
2026-05-05 14:11 33.13736 125.64656 37142 ft 552 kts 12°
2026-05-05 14:12 33.21105 125.67303 37134 ft 551 kts 13°
2026-05-05 14:12 33.28424 125.69950 37128 ft 551 kts 13°
2026-05-05 14:13 33.35754 125.72588 37123 ft 551 kts 13°
2026-05-05 14:13 33.43087 125.75222 37121 ft 551 kts 13°
2026-05-05 14:14 33.50430 125.77861 37120 ft 551 kts 13°
2026-05-05 14:14 33.57715 125.80484 37120 ft 551 kts 13°
2026-05-05 14:15 33.65052 125.83130 37120 ft 551 kts 13°
2026-05-05 14:15 33.72409 125.85791 37120 ft 551 kts 13°
2026-05-05 14:16 33.79746 125.88452 37120 ft 551 kts 13°
2026-05-05 14:16 33.87038 125.91099 37120 ft 552 kts 13°
2026-05-05 14:17 33.94378 125.93766 37120 ft 552 kts 13°
2026-05-05 14:17 34.11327 125.99944 37150 ft 552 kts 13°
2026-05-05 14:18 34.36995 126.09337 37117 ft 552 kts 13°
2026-05-05 14:18 34.44329 126.12030 37120 ft 552 kts 13°
2026-05-05 14:19 34.51696 126.14744 37120 ft 552 kts 13°
2026-05-05 14:19 34.59021 126.17448 37120 ft 553 kts 13°
2026-05-05 14:20 34.66365 126.20164 37120 ft 554 kts 13°
2026-05-05 14:20 34.73703 126.22884 37120 ft 554 kts 13°
2026-05-05 14:21 34.81065 126.25618 37120 ft 554 kts 13°
2026-05-05 14:21 34.88393 126.28344 37120 ft 554 kts 13°
2026-05-05 14:22 34.94476 126.30610 37123 ft 543 kts 13°
2026-05-05 14:22 35.02787 126.33704 37122 ft 528 kts 14°
2026-05-05 14:23 35.09696 126.36288 37121 ft 524 kts 15°
2026-05-05 14:23 35.16665 126.38899 37120 ft 524 kts 15°
2026-05-05 14:24 35.22472 126.41074 37120 ft 524 kts 15°
2026-05-05 14:24 35.30565 126.44114 37120 ft 524 kts 15°
2026-05-05 14:25 35.37496 126.46725 37120 ft 524 kts 15°
2026-05-05 14:25 35.44462 126.49355 37117 ft 524 kts 15°
2026-05-05 14:26 35.51437 126.51992 37109 ft 524 kts 15°
2026-05-05 14:26 35.57177 126.54167 37102 ft 524 kts 15°
2026-05-05 14:27 35.64137 126.56808 37097 ft 524 kts 15°
2026-05-05 14:27 35.72231 126.59886 37094 ft 524 kts 15°
2026-05-05 14:28 35.79181 126.62534 37094 ft 524 kts 15°
2026-05-05 14:28 35.86103 126.65176 37093 ft 524 kts 15°
2026-05-05 14:29 35.93075 126.67872 37094 ft 524 kts 15°
2026-05-05 14:29 36.00028 126.70558 37094 ft 524 kts 15°
2026-05-05 14:30 36.06988 126.73237 37094 ft 524 kts 15°
2026-05-05 14:30 36.12783 126.75463 37094 ft 524 kts 15°
2026-05-05 14:31 36.20896 126.78576 37094 ft 524 kts 15°
2026-05-05 14:31 36.27858 126.81258 37095 ft 524 kts 15°
2026-05-05 14:32 36.33648 126.83496 37098 ft 524 kts 15°
2026-05-05 14:32 36.41712 126.86620 37102 ft 524 kts 15°
2026-05-05 14:33 36.48683 126.89326 37103 ft 524 kts 15°
2026-05-05 14:33 36.55590 126.92013 37100 ft 524 kts 15°
2026-05-05 14:34 36.61396 126.94276 37092 ft 524 kts 15°
2026-05-05 14:34 36.69519 126.97434 37070 ft 524 kts 13°
2026-05-05 14:35 36.73049 126.98143 36915 ft 511 kts
2026-05-05 14:35 36.76583 126.98618 36001 ft 511 kts
2026-05-05 14:35 36.80098 126.98977 35336 ft 506 kts
2026-05-05 14:35 36.83588 126.99034 34669 ft 501 kts 356°
2026-05-05 14:36 36.87071 126.98798 33991 ft 497 kts 352°
2026-05-05 14:36 36.90477 126.98269 33313 ft 493 kts 348°
2026-05-05 14:36 36.93816 126.97445 32629 ft 489 kts 344°
2026-05-05 14:36 36.95977 126.96739 32173 ft 486 kts 342°
2026-05-05 14:37 37.00206 126.94930 31288 ft 480 kts 336°
2026-05-05 14:37 37.03255 126.93300 30096 ft 488 kts 338°
2026-05-05 14:37 37.06516 126.93540 27109 ft 517 kts
2026-05-05 14:37 37.10049 126.93542 26256 ft 502 kts 342°
2026-05-05 14:38 37.12171 126.92499 25849 ft 493 kts 337°
2026-05-05 14:38 37.15271 126.90771 24952 ft 489 kts 333°
2026-05-05 14:38 37.18150 126.88562 24251 ft 480 kts 326°
2026-05-05 14:38 37.21703 126.85451 23348 ft 470 kts 320°
2026-05-05 14:39 37.24082 126.82735 21194 ft 462 kts 316°
2026-05-05 14:39 37.26311 126.80011 19529 ft 441 kts 314°
2026-05-05 14:39 37.28113 126.77141 17221 ft 436 kts 283°
2026-05-05 14:39 37.28159 126.73435 15382 ft 418 kts 263°
2026-05-05 14:40 37.27771 126.69945 13991 ft 397 kts 257°
2026-05-05 14:40 37.27989 126.66422 12154 ft 388 kts 298°
2026-05-05 14:40 37.34523 126.58869 7011 ft 367 kts 342°
2026-05-05 14:40 37.36871 126.57894 5773 ft 352 kts 339°
2026-05-05 14:41 37.39041 126.56702 4694 ft 334 kts 331°
2026-05-05 14:41 37.41000 126.55333 3792 ft 316 kts 326°
2026-05-05 14:41 37.42718 126.53738 3015 ft 298 kts 314°
2026-05-05 14:41 37.43963 126.51711 2336 ft 298 kts 296°
2026-05-05 14:42 37.44659 126.49226 1418 ft 314 kts 287°
2026-05-05 14:42 37.45223 126.46600 1069 ft 306 kts 274°
2026-05-05 14:42 37.45157 126.44017 949 ft 282 kts 266°
2026-05-05 14:42 37.45705 126.41978 1564 ft 218 kts 291°
2026-05-05 14:43 37.45634 126.40462 2291 ft 172 kts 230°
2026-05-05 14:43 37.44753 126.40156 2447 ft 140 kts 122°
2026-05-05 14:43 37.45157 126.41482 1675 ft 194 kts 61°
2026-05-05 14:43 37.45321 126.43125 1059 ft 202 kts 93°
2026-05-05 14:44 37.45583 126.44873 441 ft 203 kts 49°
2026-05-05 14:44 37.46664 126.44790 669 ft 185 kts 300°
2026-05-05 14:44 37.47407 126.43484 1089 ft 188 kts 308°
2026-05-05 14:44 37.48052 126.42267 1257 ft 146 kts 283°
2026-05-05 14:45 37.48418 126.41147 1285 ft 146 kts 334°
2026-05-05 14:45 37.49335 126.41397 778 ft 148 kts 65°
2026-05-05 14:45 37.49123 126.42500 422 ft 137 kts 128°
2026-05-05 14:45 37.48464 126.43349 160 ft 132 kts 142°
2026-05-05 14:46 37.47754 126.44006 34 ft 99 kts 147°
2026-05-05 14:46 37.47364 126.44345 34 ft 55 kts 138°
2026-05-05 14:46 37.47219 126.44397 34 ft 18 kts 287°
2026-05-05 14:46 37.47222 126.44240 34 ft 12 kts 201°
2026-05-05 14:47 37.47190 126.44227 34 ft 6 kts 201°
2026-05-05 14:47 37.47153 126.44183 34 ft 1 kts 250°
2026-05-05 14:47 37.47152 126.44167 34 ft 2 kts 272°
2026-05-05 14:47 37.47247 126.44036 34 ft 50 kts 325°
2026-05-05 14:48 37.47400 126.43907 34 ft 5 kts 330°
2026-05-05 14:48 37.47441 126.43869 34 ft 12 kts 326°
2026-05-05 14:48 37.47544 126.43750 34 ft 23 kts 286°
2026-05-05 14:48 37.47458 126.43539 34 ft 18 kts 275°
2026-05-05 14:49 37.47537 126.43450 34 ft 5 kts 327°
2026-05-05 14:49 37.47536 126.43451 34 ft 0 kts 327°